sat.trackr.live / text

‹ back to catalog

SHIYAN-27 OBJECT A

NORAD 63599 · 2025-078A

PAYLOAD ACTIVE UNKNOWN

§ Identity

Operator
Country
PRC
Launch date
2025-04-18
Launch site
TAISC
Launch vehicle
Mass (kg)
RCS (m²)

External: N2YO · Heavens-Above · Gunter

§ Orbital elements

Epoch: 2026-09-21T23:05:19.602816Z

Period
106.10 min
Inclination
99.6943°
Eccentricity
0.0001051
Mean motion
13.57250648 rev/d
Perigee alt
1,044.9 km
Apogee alt
1,046.5 km
Semi-major
7,423.8 km
B*
5.8692e-5
RAAN
270.7494°
Arg perigee
104.1907°
Mean anomaly
255.9348°
Rev number
7,066

§ Raw data

SHIYAN-27 OBJECT A1 63599U 25078A   26264.96203244 -.00000002  00000+0  58692-4 0  99902 63599  99.6943 270.7494 0001051 104.1907 255.9348 13.57250648 70662

JSON: /api/v1/satellites/63599 · /tle

For live sub-satellite position, see the globe view (requires WebGL).

§ Visibility from observer

Set your observer location to see the next 7 days of passes ≥ 10°. The values pass through the URL so the page stays shareable.

No JS? Fill the form by hand. The geolocation button needs JavaScript.